Location: Hylvaty SDH
(49.9612°N, 16.4057°E)
Time: 19:57:08
(UTC+02:00)

Tiros 1 despin weight - All Passes

Search period start: 09 August 2020 00:00
Search period end: 19 August 2020 00:00
Orbit: 594 x 642 km, 48.2° (Epoch: 08 August)

Date Brightness Start Highest point End Pass type
(mag) Time Alt. Az. Time Alt. Az. Time Alt. Az.
09 Aug - 08:27:01 10° SSW 08:30:59 31° SSE 08:34:55 10° E daylight
09 Aug - 10:07:42 10° WSW 10:12:08 65° S 10:16:32 10° E daylight
09 Aug - 11:49:08 10° W 11:53:32 64° S 11:57:54 10° ESE daylight
09 Aug - 13:30:50 10° W 13:34:39 29° SSW 13:38:28 10° SSE daylight
10 Aug - 07:03:47 10° S 07:06:28 16° SE 07:09:06 10° ESE daylight
10 Aug - 08:42:59 10° SW 08:47:16 45° SSE 08:51:30 10° E daylight
10 Aug - 10:24:07 10° W 10:28:35 71° S 10:32:59 10° E daylight
10 Aug - 12:05:37 10° W 12:09:56 51° SSW 12:14:12 10° ESE daylight
10 Aug - 13:47:43 10° W 13:50:49 19° SW 13:53:54 10° S daylight
11 Aug - 07:18:55 10° SSW 07:22:34 25° SSE 07:26:13 10° E daylight
11 Aug - 08:59:12 10° WSW 09:03:37 59° SSE 09:08:00 10° E daylight
11 Aug - 10:40:35 10° W 10:45:01 69° S 10:49:25 10° ESE daylight
11 Aug - 12:22:10 10° W 12:26:14 36° SSW 12:30:18 10° SE daylight
11 Aug - 14:05:41 10° WSW 14:06:52 11° SW 14:08:03 10° SSW daylight
12 Aug - 05:56:45 10° SSE 05:58:09 11° SE 05:59:33 10° ESE daylight
12 Aug - 07:34:39 10° SW 07:38:48 37° SSE 07:42:55 10° E daylight
12 Aug - 09:15:34 10° WSW 09:20:02 69° S 09:24:28 10° E daylight
12 Aug - 10:57:03 10° W 11:01:26 59° SSW 11:05:47 10° ESE daylight
12 Aug - 12:38:52 10° W 12:42:28 25° SSW 12:46:02 10° SSE daylight
13 Aug - 06:10:59 10° S 06:14:12 19° SE 06:17:24 10° E daylight
13 Aug - 07:50:44 10° WSW 07:55:07 51° SSE 07:59:27 10° E daylight
13 Aug - 09:32:01 10° W 09:36:29 72° S 09:40:54 10° E daylight
13 Aug - 11:13:33 10° W 11:17:48 45° SSW 11:22:00 10° SE daylight
13 Aug - 12:55:59 10° WSW 12:58:34 15° SW 13:01:09 10° S daylight
14 Aug - 06:26:26 10° SSW 06:30:22 30° SSE 06:34:17 10° E daylight
14 Aug - 08:07:03 10° WSW 08:11:31 64° S 08:15:56 10° E daylight
14 Aug - 09:48:28 10° W 09:52:55 66° S 09:57:19 10° ESE daylight
14 Aug - 11:30:08 10° W 11:34:04 31° SSW 11:37:58 10° SSE daylight
15 Aug - 05:03:23 10° S 05:05:52 14° SE 05:08:20 10° ESE visible
15 Aug - 06:42:20 10° SW 06:46:38 43° SSE 06:50:53 10° E daylight
15 Aug - 08:23:26 10° W 08:27:56 71° S 08:32:23 10° E daylight
15 Aug - 10:04:57 10° W 10:09:19 53° SSW 10:13:38 10° ESE daylight
15 Aug - 11:46:57 10° W 11:50:15 20° SW 11:53:30 10° SSE daylight
16 Aug - 05:18:21 10° SSW 05:21:58 23° SSE 05:25:33 10° E daylight
16 Aug - 06:58:32 10° WSW 07:02:59 57° SSE 07:07:24 10° E daylight
16 Aug - 08:39:53 10° W 08:44:23 70° S 08:48:49 10° ESE daylight
16 Aug - 10:21:28 10° W 10:25:38 39° SSW 10:29:46 10° SE daylight
16 Aug - 12:04:32 10° WSW 12:06:18 12° SW 12:08:05 10° SSW daylight
17 Aug - 03:56:47 10° SE 03:57:33 10° SE 03:58:20 10° SE visible
17 Aug - 05:34:01 10° SW 05:38:11 35° SSE 05:42:17 10° E daylight
17 Aug - 07:14:52 10° WSW 07:19:24 68° S 07:23:51 10° E daylight
17 Aug - 08:56:21 10° W 09:00:48 61° SSW 09:05:11 10° ESE daylight
17 Aug - 10:38:07 10° W 10:41:52 26° SSW 10:45:34 10° SSE daylight
18 Aug - 04:10:29 10° S 04:13:36 18° SE 04:16:41 10° E visible
18 Aug - 05:50:04 10° SW 05:54:28 49° SSE 05:58:50 10° E daylight
18 Aug - 07:31:18 10° W 07:35:50 72° S 07:40:18 10° E daylight
18 Aug - 09:12:50 10° W 09:17:11 47° SSW 09:21:26 10° SE daylight
18 Aug - 10:55:08 10° W 10:58:00 17° SW 11:00:50 10° S daylight
